KE0QIB Weather Reports


time (UTC)temp
F
wind
direction
speed
knots
gust
knots
rain 1hr
in
rain 24hr
in
rain mn
in
humidity
%
barometer
mb
20260906211658 71 181 0.9 2.6 0.24 0.24 0.24 84 992.5
20260906211158 70 159 1.7 6.1 0.24 0.24 0.24 81 992.5
20260906210658 69 177 2.6 6.1 0.24 0.24 0.24 80 992.5
20260906210158 69 221 2.6 6.1 0.23 0.23 0.23 80 992.7
20260906205658 69 148 2.6 12.2 0.23 0.23 0.23 76 992.7
20260906205158 70 173 2.6 4.3 0.15 0.15 0.15 78 992.7
20260906204658 72 220 2.6 4.3 0.15 0.15 0.15 75 992.3
20260906204158 74 177 2.6 4.3 0.12 0.12 0.12 69 992.3
20260906203658 76 174 2.6 4.3 0.07 0.07 0.07 64 992.3
20260906203158 80 180 1.7 5.2 0.04 0.04 0.04 57 991.0
20260906202658 83 169 1.7 6.1 0.02 0.02 0.02 48 991.0
20260906202158 84 94 1.7 5.2 0.01 0.01 0.01 45 991.0
20260906201658 86 136 2.6 4.3 0.00 0.00 0.00 38 990.8
20260906201158 86 108 3.5 9.6 0.00 0.00 0.00 37 990.8
20260906200658 87 99 4.3 9.6 0.00 0.00 0.00 35 990.8
20260906200158 87 71 4.3 8.7 0.00 0.00 0.00 34 990.5
20260906195658 88 140 4.3 13.0 0.00 0.00 0.00 34 990.5
20260906195158 89 173 4.3 8.7 0.00 0.00 0.00 33 990.5
20260906194658 89 105 3.5 9.6 0.00 0.00 0.00 33 989.7
20260906194158 90 96 3.5 8.7 0.00 0.00 0.00 32 989.7
20260906193658 90 57 4.3 12.2 0.00 0.00 0.00 32 989.7
20260906193158 90 90 5.2 10.4 0.00 0.00 0.00 33 989.7
20260906192658 90 71 5.2 9.6 0.00 0.00 0.00 33 989.7
20260906192158 90 163 6.1 16.5 0.00 0.00 0.00 33 989.7
20260906191658 90 213 6.1 12.2 0.00 0.00 0.00 32 989.7
20260906191158 90 88 5.2 7.8 0.00 0.00 0.00 32 989.7
20260906190658 90 92 5.2 11.3 0.00 0.00 0.00 32 989.7
20260906190158 90 126 5.2 8.7 0.00 0.00 0.00 32 989.6
20260906185658 91 105 5.2 12.2 0.00 0.00 0.00 32 989.6
20260906185158 91 98 4.3 12.2 0.00 0.00 0.00 32 989.6
20260906184658 91 75 3.5 13.9 0.00 0.00 0.00 32 989.9
20260906184158 91 134 3.5 10.4 0.00 0.00 0.00 32 989.9
20260906183658 91 144 4.3 9.6 0.00 0.00 0.00 33 989.9
20260906183158 91 115 4.3 8.7 0.00 0.00 0.00 32 990.0
20260906182658 91 115 4.3 8.7 0.00 0.00 0.00 33 990.0
20260906182158 91 69 4.3 13.9 0.00 0.00 0.00 32 990.0
20260906181658 91 146 4.3 9.6 0.00 0.00 0.00 33 990.3
20260906181158 90 125 4.3 7.8 0.00 0.00 0.00 33 990.3
20260906180658 90 119 3.5 8.7 0.00 0.00 0.00 33 990.3
20260906180158 90 109 3.5 6.1 0.00 0.00 0.00 33 990.7
20260906175658 90 99 4.3 8.7 0.00 0.00 0.00 33 990.7
20260906175158 90 68 4.3 7.8 0.00 0.00 0.00 34 990.7
20260906174658 90 74 4.3 8.7 0.00 0.00 0.00 33 991.4
20260906174158 89 168 4.3 12.2 0.00 0.00 0.00 34 991.4
20260906173659 90 100 5.2 10.4 0.00 0.00 0.00 34 991.4
20260906173159 90 68 4.3 10.4 0.00 0.00 0.00 33 991.7
20260906172659 90 71 4.3 7.0 0.00 0.00 0.00 33 991.7
20260906172159 89 94 3.5 7.8 0.00 0.00 0.00 33 991.7
20260906171659 89 91 4.3 10.4 0.00 0.00 0.00 33 991.9
20260906171159 89 97 4.3 10.4 0.00 0.00 0.00 34 991.9
20260906170659 89 132 4.3 11.3 0.00 0.00 0.00 34 991.9
20260906170159 89 137 4.3 11.3 0.00 0.00 0.00 34 992.0
20260906165659 90 68 4.3 13.0 0.00 0.00 0.00 33 992.0
20260906165159 89 71 3.5 9.6 0.00 0.00 0.00 34 992.0
20260906164659 89 92 3.5 9.6 0.00 0.00 0.00 34 991.7
20260906164159 89 165 3.5 7.8 0.00 0.00 0.00 35 991.7
20260906163659 88 92 3.5 11.3 0.00 0.00 0.00 35 991.7
20260906163159 88 104 2.6 5.2 0.00 0.00 0.00 35 992.1
20260906162659 88 65 3.5 4.3 0.00 0.00 0.00 36 992.1
20260906162159 88 73 2.6 6.1 0.00 0.00 0.00 36 992.1
20260906161659 87 141 2.6 5.2 0.00 0.00 0.00 37 992.2
20260906161159 87 71 2.6 6.1 0.00 0.00 0.00 37 992.2
20260906160659 87 153 2.6 5.2 0.00 0.00 0.00 36 992.2
20260906160159 86 184 2.6 5.2 0.00 0.00 0.00 36 992.5
20260906155659 86 160 2.6 4.3 0.00 0.00 0.00 36 992.5
20260906155159 86 159 2.6 6.1 0.00 0.00 0.00 36 992.5
20260906154659 86 126 1.7 5.2 0.00 0.00 0.00 36 992.1
20260906154159 85 136 0.9 3.5 0.00 0.00 0.00 38 992.1
20260906153659 84 190 1.7 3.5 0.00 0.00 0.00 38 992.1
20260906153159 84 188 0.9 3.5 0.00 0.00 0.00 39 992.3
20260906152659 83 188 0.9 1.7 0.00 0.00 0.00 39 992.3
20260906152159 83 132 2.6 5.2 0.00 0.00 0.00 43 992.3
20260906151659 83 73 2.6 5.2 0.00 0.00 0.00 44 992.4
20260906151159 83 87 1.7 3.5 0.00 0.00 0.00 45 992.4
20260906150659 82 69 0.9 3.5 0.00 0.00 0.00 44 992.4
20260906150159 82 68 0.9 2.6 0.00 0.00 0.00 45 992.9
20260906145659 82 68 1.7 1.7 0.00 0.00 0.00 45 992.9
20260906145159 81 68 0.9 3.5 0.00 0.00 0.00 47 992.9
20260906144659 80 67 0.9 2.6 0.00 0.00 0.00 47 993.1
20260906144159 80 67 1.7 2.6 0.00 0.00 0.00 48 993.1
20260906143659 80 67 1.7 3.5 0.00 0.00 0.00 48 993.1
20260906143159 79 67 0.9 3.5 0.00 0.00 0.00 47 993.2
20260906142659 79 67 0.9 2.6 0.00 0.00 0.00 48 993.2
20260906142159 79 67 0.9 2.6 0.00 0.00 0.00 48 993.2
20260906141659 78 67 0.9 1.7 0.00 0.00 0.00 49 993.3
20260906141159 78 67 0.9 1.7 0.00 0.00 0.00 50 993.3
20260906140659 78 67 0.9 2.6 0.00 0.00 0.00 51 993.3
20260906140159 78 67 0.9 1.7 0.00 0.00 0.00 50 993.5
20260906135659 77 67 0.0 0.9 0.00 0.00 0.00 52 993.5
20260906135159 77 67 0.0 0.9 0.00 0.00 0.00 50 993.5
20260906134659 77 67 0.0 0.0 0.00 0.00 0.00 51 993.6
20260906134159 76 67 0.0 0.0 0.00 0.00 0.00 53 993.6
20260906133659 75 67 0.0 0.0 0.00 0.00 0.00 56 993.6
20260906133159 74 67 0.0 0.0 0.00 0.00 0.00 57 993.7
20260906132659 73 67 0.0 1.7 0.00 0.00 0.00 57 993.7
20260906132159 73 67 0.0 1.7 0.00 0.00 0.00 58 993.7
20260906131659 72 67 0.0 0.0 0.00 0.00 0.00 58 993.6
20260906131159 72 67 0.0 0.0 0.00 0.00 0.00 58 993.6
20260906130659 72 67 0.0 0.9 0.00 0.00 0.00 58 993.6
20260906130159 72 67 0.0 0.0 0.00 0.00 0.00 58 993.4
20260906125659 71 67 0.0 0.0 0.00 0.00 0.00 58 993.4
20260906125159 71 67 0.9 0.9 0.00 0.00 0.00 59 993.4
20260906124659 71 67 0.9 2.6 0.00 0.00 0.00 59 993.0
20260906124159 71 67 0.0 1.7 0.00 0.00 0.00 58 993.0
20260906123659 71 67 0.0 0.9 0.00 0.00 0.00 58 993.0
20260906123159 71 67 0.0 0.9 0.00 0.00 0.00 59 992.9
20260906122659 71 67 0.9 1.7 0.00 0.00 0.00 59 992.9
20260906122159 71 67 0.9 3.5 0.00 0.00 0.00 59 992.9
20260906121659 71 67 0.9 1.7 0.00 0.00 0.00 59 992.9
20260906121159 71 67 0.9 2.6 0.00 0.00 0.00 58 992.9
20260906120659 72 67 0.0 1.7 0.00 0.00 0.00 57 992.9
20260906120159 72 67 0.0 0.0 0.00 0.00 0.00 57 992.5
20260906115659 72 67 0.9 2.6 0.00 0.00 0.00 57 992.5
20260906115159 73 67 0.9 2.6 0.00 0.00 0.00 56 992.5
20260906114659 73 67 1.7 4.3 0.00 0.00 0.00 56 992.4
20260906114159 73 86 0.9 3.5 0.00 0.00 0.00 55 992.4
20260906113659 73 87 0.9 3.5 0.00 0.00 0.00 55 992.4
20260906113159 74 38 1.7 2.6 0.00 0.00 0.00 54 992.5
20260906112659 74 38 1.7 4.3 0.00 0.00 0.00 54 992.5
20260906112159 74 46 1.7 2.6 0.00 0.00 0.00 54 992.5
20260906111659 74 50 1.7 6.1 0.00 0.00 0.00 55 992.6
20260906111159 74 32 1.7 5.2 0.00 0.00 0.00 55 992.6
20260906110659 73 11 0.9 3.5 0.00 0.00 0.00 55 992.6
20260906110159 73 11 0.0 1.7 0.00 0.00 0.00 55 992.4
20260906105659 74 11 0.9 1.7 0.00 0.00 0.00 54 992.4
20260906105159 74 11 0.9 3.5 0.00 0.00 0.00 54 992.4
20260906104659 74 9 0.9 1.7 0.00 0.00 0.00 54 992.4
20260906104159 74 9 1.7 1.7 0.00 0.00 0.00 54 992.4
20260906103659 74 9 1.7 5.2 0.00 0.00 0.00 54 992.4
20260906103159 74 66 1.7 4.3 0.00 0.00 0.00 54 992.4
20260906102659 74 52 0.9 2.6 0.00 0.00 0.00 53 992.4
20260906102159 74 52 0.0 1.7 0.00 0.00 0.00 53 992.4
20260906101659 75 52 0.9 3.5 0.00 0.00 0.00 52 992.4
20260906101159 75 53 0.9 2.6 0.00 0.00 0.00 52 992.4
20260906100659 75 24 0.0 0.9 0.00 0.00 0.00 51 992.4
20260906100159 76 23 0.9 1.7 0.00 0.00 0.00 51 991.6
20260906095659 76 23 2.6 4.3 0.00 0.00 0.00 50 991.6
20260906095159 76 30 3.5 4.3 0.00 0.00 0.00 50 991.6
20260906094659 76 228 4.3 9.6 0.00 0.00 0.00 49 991.2
20260906094159 76 218 4.3 7.8 0.00 0.00 0.00 49 991.2
20260906093659 76 236 4.3 9.6 0.00 0.00 0.00 49 991.2
20260906093200 76 230 3.5 10.4 0.00 0.00 0.00 49 991.3
20260906092659 77 225 3.5 6.1 0.00 0.00 0.00 48 991.3
20260906092200 77 211 4.3 11.3 0.00 0.00 0.00 48 991.3
20260906091659 77 224 4.3 11.3 0.00 0.00 0.00 48 990.9
20260906091200 77 236 5.2 12.2 0.00 0.00 0.00 49 990.9
20260906090700 76 256 5.2 8.7 0.00 0.00 0.00 49 990.9
20260906090200 76 229 3.5 10.4 0.00 0.00 0.00 51 991.3
20260906085700 75 229 2.6 7.8 0.00 0.00 0.00 53 991.3
20260906085200 74 223 1.7 5.2 0.00 0.00 0.00 54 991.3
20260906084700 74 88 0.9 3.5 0.00 0.00 0.00 54 991.4
20260906084200 74 89 0.9 2.6 0.00 0.00 0.00 55 991.4
20260906083700 74 89 0.9 1.7 0.00 0.00 0.00 55 991.4
20260906083200 74 89 0.9 3.5 0.00 0.00 0.00 56 991.9
20260906082700 73 89 0.9 3.5 0.00 0.00 0.00 56 991.9
20260906082200 73 89 0.9 2.6 0.00 0.00 0.00 56 991.9
20260906081700 73 89 0.9 2.6 0.00 0.00 0.00 56 992.0
20260906081200 74 89 0.9 2.6 0.00 0.00 0.00 57 992.0
20260906080700 74 90 0.9 2.6 0.00 0.00 0.00 56 992.0
20260906080200 75 89 0.0 1.7 0.00 0.00 0.00 56 991.7
20260906075700 75 89 0.0 1.7 0.00 0.00 0.00 55 991.7
20260906075200 76 89 0.9 1.7 0.00 0.00 0.00 54 991.7
20260906074700 77 89 0.9 1.7 0.00 0.00 0.00 53 992.1
20260906074200 77 89 1.7 2.6 0.00 0.00 0.00 51 992.1
20260906073700 78 90 2.6 4.3 0.00 0.00 0.00 50 992.1
20260906073200 79 94 2.6 4.3 0.00 0.00 0.00 48 991.8
20260906072700 79 225 2.6 5.2 0.00 0.00 0.00 48 991.8
20260906072200 78 225 2.6 5.2 0.00 0.00 0.00 48 991.8
20260906071700 78 232 2.6 5.2 0.00 0.00 0.00 49 992.3
20260906071200 77 217 0.9 5.2 0.00 0.00 0.00 51 992.3
20260906070700 76 223 0.9 2.6 0.00 0.00 0.00 52 992.3
20260906070200 77 102 0.9 1.7 0.00 0.00 0.00 52 991.9
20260906065700 77 306 1.7 3.5 0.00 0.00 0.00 50 991.9
20260906065200 78 305 1.7 3.5 0.00 0.00 0.00 50 991.9
20260906064700 78 305 1.7 4.3 0.00 0.00 0.00 50 991.8
20260906064200 79 225 1.7 4.3 0.00 0.00 0.00 50 991.8
20260906063700 79 221 2.6 5.2 0.00 0.00 0.00 49 991.8
20260906063200 79 212 2.6 7.8 0.00 0.00 0.00 49 992.0
20260906062700 79 215 2.6 4.3 0.00 0.00 0.00 49 992.0
20260906062200 79 219 1.7 4.3 0.00 0.00 0.00 50 992.0
20260906061700 79 201 1.7 3.5 0.00 0.00 0.00 51 992.6
20260906061200 78 198 1.7 4.3 0.00 0.00 0.00 52 992.6
20260906060700 78 207 1.7 5.2 0.00 0.00 0.00 53 992.6
20260906060200 77 55 0.9 2.6 0.00 0.00 0.00 54 993.0
20260906055700 76 162 0.9 3.5 0.00 0.00 0.00 55 993.0
20260906055200 75 190 0.9 1.7 0.00 0.00 0.00 55 993.0
20260906054700 73 212 0.9 3.5 0.00 0.00 0.00 57 993.3
20260906054200 72 167 0.9 2.6 0.00 0.00 0.00 54 993.3
20260906053700 72 167 1.7 1.7 0.00 0.00 0.00 53 993.3
20260906053200 73 167 1.7 2.6 0.00 0.00 0.00 52 993.9
20260906052700 73 167 0.9 2.6 0.00 0.00 0.00 52 993.9
20260906052200 74 167 0.0 1.7 0.00 0.00 0.00 51 993.9
20260906051700 74 167 0.0 1.7 0.00 0.00 0.00 50 993.5
20260906051200 74 167 0.0 0.0 0.00 0.00 0.00 50 993.5
20260906050700 74 167 0.9 1.7 0.00 0.00 0.00 50 993.5
20260906050200 74 167 0.9 2.6 0.00 0.00 0.00 49 993.3
20260906045700 75 167 0.0 1.7 0.00 0.00 0.00 49 993.3
20260906045200 75 167 0.0 1.7 0.00 0.00 0.00 48 993.3
20260906044700 75 167 0.0 0.9 0.00 0.00 0.00 48 992.9
20260906044200 76 167 0.0 0.9 0.00 0.00 0.00 48 992.9
20260906043700 76 167 0.9 2.6 0.00 0.00 0.00 47 992.9
20260906043200 76 167 0.9 2.6 0.00 0.00 0.00 47 993.1
20260906042700 77 167 0.9 1.7 0.00 0.00 0.00 46 993.1
20260906042200 77 167 0.0 1.7 0.00 0.00 0.00 45 993.1
20260906041700 78 167 0.0 0.0 0.00 0.00 0.00 45 992.9
20260906041200 78 167 0.0 0.9 0.00 0.00 0.00 45 992.9
20260906040700 79 167 0.0 1.7 0.00 0.00 0.00 44 992.9
20260906040200 79 167 0.9 2.6 0.00 0.00 0.00 44 992.9
20260906035700 79 167 0.9 1.7 0.00 0.00 0.00 44 992.9
20260906035200 80 167 0.0 1.7 0.00 0.00 0.00 43 992.9
20260906034700 80 167 0.0 0.9 0.00 0.00 0.00 43 993.2
20260906034200 81 167 0.0 0.9 0.00 0.00 0.00 42 993.2
20260906033700 81 167 0.0 0.0 0.00 0.00 0.00 42 993.2
20260906033200 81 167 0.0 0.0 0.00 0.00 0.00 42 993.1
20260906032700 82 167 0.0 0.9 0.00 0.00 0.00 41 993.1
20260906032200 82 167 0.9 0.9 0.00 0.00 0.00 41 993.1
20260906031700 82 167 0.9 2.6 0.00 0.00 0.00 41 992.8
20260906031200 82 167 0.9 2.6 0.00 0.00 0.00 41 992.8
20260906030700 82 167 0.9 4.3 0.00 0.00 0.00 41 992.8
20260906030200 82 177 1.7 2.6 0.00 0.00 0.00 41 992.6
20260906025700 82 166 1.7 3.5 0.00 0.00 0.00 41 992.6
20260906025200 82 166 1.7 5.2 0.00 0.00 0.00 41 992.6
20260906024700 82 200 1.7 3.5 0.00 0.00 0.00 41 992.4
20260906024200 82 175 0.9 4.3 0.00 0.00 0.00 40 992.4
20260906023700 82 190 0.9 3.5 0.00 0.00 0.00 39 992.4
20260906023200 82 180 1.7 3.5 0.00 0.00 0.00 39 992.2
20260906022700 82 217 1.7 3.5 0.00 0.00 0.00 39 992.2
20260906022200 82 216 1.7 5.2 0.00 0.00 0.00 39 992.2
20260906021700 82 176 0.9 3.5 0.00 0.00 0.00 39 992.1
20260906021200 82 181 0.0 1.7 0.00 0.00 0.00 39 992.1
20260906020700 82 180 0.9 3.5 0.00 0.00 0.00 39 992.1
20260906020200 82 178 0.9 2.6 0.00 0.00 0.00 39 992.2
20260906015700 82 178 0.9 3.5 0.00 0.00 0.00 39 992.2
20260906015200 83 178 0.9 3.5 0.00 0.00 0.00 38 992.2
20260906014700 83 211 1.7 4.3 0.00 0.00 0.00 38 991.5
20260906014200 83 164 1.7 4.3 0.00 0.00 0.00 37 991.5
20260906013700 83 161 0.9 4.3 0.00 0.00 0.00 37 991.5
20260906013200 83 203 1.7 3.5 0.00 0.00 0.00 36 991.6
20260906012701 83 210 1.7 4.3 0.00 0.00 0.00 34 991.6
20260906012201 83 178 1.7 2.6 0.00 0.00 0.00 34 991.6
20260906011701 84 196 0.9 2.6 0.00 0.00 0.00 33 991.7
20260906011201 84 175 0.9 1.7 0.00 0.00 0.00 33 991.7
20260906010701 84 175 0.9 4.3 0.00 0.00 0.00 32 991.7
20260906010201 84 186 0.9 2.6 0.00 0.00 0.00 32 991.9
20260906005701 85 179 0.9 4.3 0.00 0.00 0.00 31 991.9
20260906005201 85 164 1.7 3.5 0.00 0.00 0.00 31 991.9
20260906004701 85 153 1.7 5.2 0.00 0.00 0.00 30 992.8
20260906004201 85 130 2.6 3.5 0.00 0.00 0.00 30 992.8
20260906003701 85 121 2.6 6.1 0.00 0.00 0.00 30 992.8
20260906003201 85 159 1.7 4.3 0.00 0.00 0.00 30 992.8
20260906002701 86 158 1.7 3.5 0.00 0.00 0.00 29 992.8
20260906002201 86 139 1.7 5.2 0.00 0.00 0.00 29 992.8
20260906001701 86 159 0.9 5.2 0.00 0.00 0.00 29 992.4
20260906001201 86 173 1.7 5.2 0.00 0.00 0.00 30 992.4
20260906000701 86 171 1.7 4.3 0.00 0.00 0.00 29 992.4
20260906000201 86 161 1.7 4.3 0.00 0.00 0.00 29 992.1
20260905235701 86 165 1.7 3.5 0.00 0.00 0.00 29 992.1
20260905235201 86 124 0.0 3.5 0.00 0.00 0.00 30 992.1
20260905234701 86 161 0.0 0.9 0.00 0.00 0.00 31 991.5
20260905234201 86 161 0.0 0.9 0.00 0.00 0.00 30 991.5
20260905233701 87 161 0.0 0.9 0.00 0.00 0.00 31 991.5
20260905233201 87 161 0.0 1.7 0.00 0.00 0.00 30 991.4
20260905232701 87 161 0.9 2.6 0.00 0.00 0.00 30 991.4
20260905232201 87 161 0.9 1.7 0.00 0.00 0.00 30 991.4
20260905231701 87 163 0.9 2.6 0.00 0.00 0.00 31 990.8
20260905231201 87 162 0.9 4.3 0.00 0.00 0.00 31 990.8
20260905230701 87 163 1.7 4.3 0.00 0.00 0.00 30 990.8
20260905230201 87 165 2.6 4.3 0.00 0.00 0.00 30 990.7
20260905225701 88 156 1.7 3.5 0.00 0.00 0.00 30 990.7
20260905225201 88 70 1.7 4.3 0.00 0.00 0.00 31 990.7
20260905224701 88 137 1.7 6.1 0.00 0.00 0.00 30 990.6
20260905224201 88 84 1.7 6.1 0.00 0.00 0.00 31 990.6
20260905223701 88 178 0.9 3.5 0.00 0.00 0.00 30 990.6
20260905223201 88 85 0.9 2.6 0.00 0.00 0.00 30 990.5
20260905222701 89 82 1.7 5.2 0.00 0.00 0.00 29 990.5
20260905222201 89 76 1.7 6.1 0.00 0.00 0.00 29 990.5
20260905221701 89 132 1.7 4.3 0.00 0.00 0.00 28 990.5
20260905221201 89 68 2.6 5.2 0.00 0.00 0.00 28 990.5
20260905220701 90 92 2.6 5.2 0.00 0.00 0.00 26 990.5
20260905220201 90 99 1.7 4.3 0.00 0.00 0.00 26 990.4
20260905215701 91 71 1.7 4.3 0.00 0.00 0.00 25 990.4
20260905215201 91 100 1.7 5.2 0.00 0.00 0.00 26 990.4
20260905214701 90 79 1.7 5.2 0.00 0.00 0.00 27 990.5
20260905214201 90 78 2.6 5.2 0.00 0.00 0.00 28 990.5
20260905213701 90 85 1.7 4.3 0.00 0.00 0.00 27 990.5
20260905213201 90 116 0.0 0.9 0.00 0.00 0.00 27 990.6
20260905212701 90 116 0.0 1.7 0.00 0.00 0.00 29 990.6
20260905212201 91 116 0.0 1.7 0.00 0.00 0.00 26 990.6